Latest:
 RWRRLX |
  [top]

000
ASUS41 KRLX 042110
RWRRLX
West Virginia Regional Weather Roundup
National Weather Service Charleston WV
500 PM EDT WED MAY 04 2016

Note: "fair" indicates few or no clouds below 12,000 feet with no
significant weather and/or obstructions to visibility.

WVZ003-042200-
Northern Panhandle of West Virginia

CITY           SKY/WX    TMP DP  RH WIND       PRES   REMARKS
WHEELING         N/A     61  45  55 SE12      29.61S
$$

WVZ009-042200-
Northwest West Virginia

CITY           SKY/WX    TMP DP  RH WIND       PRES   REMARKS
PARKERSBURG    LGT RAIN  56  45  66 W14G20    29.67R
$$

WVZ006-042200-
Western West Virginia

CITY           SKY/WX    TMP DP  RH WIND       PRES   REMARKS
HUNTINGTON     LGT RAIN  55  48  77 VRB3      29.67R
$$

WVZ015-042200-
West Central West Virginia

CITY           SKY/WX    TMP DP  RH WIND       PRES   REMARKS
CHARLESTON     PTSUNNY   63  42  46 W9        29.63S
$$

WVZ022-031-042200-
North Central West Virginia

CITY           SKY/WX    TMP DP  RH WIND       PRES   REMARKS
CLARKSBURG     PTSUNNY   55  48  77 SE6       29.64F
MORGANTOWN     CLOUDY    52  46  80 CALM      29.66F
$$

WVZ025-035-042-045-042200-
Southern West Virginia

CITY           SKY/WX    TMP DP  RH WIND       PRES   REMARKS
BECKLEY        LGT RAIN  50  44  80 S6        29.67R
LOGAN          NOT AVBL
BLUEFIELD      CLOUDY    56  36  47 W9        29.67F
LEWISBURG        N/A     56  40  53 SW5       29.65F
$$

WVZ047-042200-
Northern Mountains of West Virginia

CITY           SKY/WX    TMP DP  RH WIND       PRES   REMARKS
ELKINS         CLOUDY    55  41  59 VRB6      29.66F
$$

WVZ052-042200-
Eastern Panhandle of West Virginia

CITY           SKY/WX    TMP DP  RH WIND       PRES   REMARKS
MARTINSBURG    LGT RAIN  57  50  77 NW9       29.63R
PETERSBURG     CLOUDY    65  49  56 CALM      29.62F
$$





000
ASUS41 KRLX 042010
RWRRLX
West Virginia Regional Weather Roundup
National Weather Service Charleston WV
400 PM EDT WED MAY 04 2016

Note: "fair" indicates few or no clouds below 12,000 feet with no
significant weather and/or obstructions to visibility.

WVZ003-042100-
Northern Panhandle of West Virginia

CITY           SKY/WX    TMP DP  RH WIND       PRES   REMARKS
WHEELING       CLOUDY    64  42  44 W7        29.61F
$$

WVZ009-042100-
Northwest West Virginia

CITY           SKY/WX    TMP DP  RH WIND       PRES   REMARKS
PARKERSBURG    PTSUNNY   65  42  43 VRB7      29.64F
$$

WVZ006-042100-
Western West Virginia

CITY           SKY/WX    TMP DP  RH WIND       PRES   REMARKS
HUNTINGTON     LGT RAIN  54  47  77 NW9       29.66R
$$

WVZ015-042100-
West Central West Virginia

CITY           SKY/WX    TMP DP  RH WIND       PRES   REMARKS
CHARLESTON     PTSUNNY   65  42  43 N3        29.63F
$$

WVZ022-031-042100-
North Central West Virginia

CITY           SKY/WX    TMP DP  RH WIND       PRES   REMARKS
CLARKSBURG     CLOUDY    53  48  83 SE6       29.66F
MORGANTOWN     LGT RAIN  50  45  83 E3        29.67F
$$

WVZ025-035-042-045-042100-
Southern West Virginia

CITY           SKY/WX    TMP DP  RH WIND       PRES   REMARKS
BECKLEY        CLOUDY    58  41  53 S6        29.66F
LOGAN          NOT AVBL
BLUEFIELD      PTSUNNY   58  39  49 VRB5      29.68F
LEWISBURG      DRIZZLE   53  42  66 W3        29.68S
$$

WVZ047-042100-
Northern Mountains of West Virginia

CITY           SKY/WX    TMP DP  RH WIND       PRES   REMARKS
ELKINS         CLOUDY    55  39  54 CALM      29.68S
$$

WVZ052-042100-
Eastern Panhandle of West Virginia

CITY           SKY/WX    TMP DP  RH WIND       PRES   REMARKS
MARTINSBURG    CLOUDY    61  52  72 E9        29.62F
PETERSBURG     CLOUDY    63  47  55 CALM      29.63F
$$





000
ASUS41 KRLX 041910
RWRRLX
West Virginia Regional Weather Roundup
National Weather Service Charleston WV
300 PM EDT WED MAY 04 2016

Note: "fair" indicates few or no clouds below 12,000 feet with no
significant weather and/or obstructions to visibility.

WVZ003-042000-
Northern Panhandle of West Virginia

CITY           SKY/WX    TMP DP  RH WIND       PRES   REMARKS
WHEELING       CLOUDY    59  40  49 S7        29.63F
$$

WVZ009-042000-
Northwest West Virginia

CITY           SKY/WX    TMP DP  RH WIND       PRES   REMARKS
PARKERSBURG    PTSUNNY   64  41  42 S9        29.65F
$$

WVZ006-042000-
Western West Virginia

CITY           SKY/WX    TMP DP  RH WIND       PRES   REMARKS
HUNTINGTON     CLOUDY    62  46  55 S6        29.65F
$$

WVZ015-042000-
West Central West Virginia

CITY           SKY/WX    TMP DP  RH WIND       PRES   REMARKS
CHARLESTON     PTSUNNY   62  42  47 SW8       29.66F
$$

WVZ022-031-042000-
North Central West Virginia

CITY           SKY/WX    TMP DP  RH WIND       PRES   REMARKS
CLARKSBURG     CLOUDY    51  48  89 SE7       29.67F
MORGANTOWN     LGT RAIN  52  42  69 VRB6G20   29.69R
$$

WVZ025-035-042-045-042000-
Southern West Virginia

CITY           SKY/WX    TMP DP  RH WIND       PRES   REMARKS
BECKLEY        CLOUDY    54  42  64 SW9G16    29.69F
LOGAN          NOT AVBL
BLUEFIELD      CLOUDY    53  40  61 NW10G20   29.71F
LEWISBURG      CLOUDY    58  40  52 SW8       29.68F
$$

WVZ047-042000-
Northern Mountains of West Virginia

CITY           SKY/WX    TMP DP  RH WIND       PRES   REMARKS
ELKINS         CLOUDY    54  44  69 W16       29.68F
$$

WVZ052-042000-
Eastern Panhandle of West Virginia

CITY           SKY/WX    TMP DP  RH WIND       PRES   REMARKS
MARTINSBURG      N/A     62  52  69 E9        29.64F
PETERSBURG     CLOUDY    59  52  77 SE3       29.66F
$$





000
ASUS41 KRLX 041810
RWRRLX
West Virginia Regional Weather Roundup
National Weather Service Charleston WV
200 PM EDT WED MAY 04 2016

Note: "fair" indicates few or no clouds below 12,000 feet with no
significant weather and/or obstructions to visibility.

WVZ003-041900-
Northern Panhandle of West Virginia

CITY           SKY/WX    TMP DP  RH WIND       PRES   REMARKS
WHEELING       PTSUNNY   60  42  51 W15       29.65F
$$

WVZ009-041900-
Northwest West Virginia

CITY           SKY/WX    TMP DP  RH WIND       PRES   REMARKS
PARKERSBURG    PTSUNNY   63  46  54 VRB3      29.67F
$$

WVZ006-041900-
Western West Virginia

CITY           SKY/WX    TMP DP  RH WIND       PRES   REMARKS
HUNTINGTON     LGT RAIN  61  45  55 S10       29.66F
$$

WVZ015-041900-
West Central West Virginia

CITY           SKY/WX    TMP DP  RH WIND       PRES   REMARKS
CHARLESTON     PTSUNNY   62  41  46 VRB5      29.67F
$$

WVZ022-031-041900-
North Central West Virginia

CITY           SKY/WX    TMP DP  RH WIND       PRES   REMARKS
CLARKSBURG     RAIN      50  47  89 SW3       29.68S FOG
MORGANTOWN     CLOUDY    59  43  55 N3        29.67F
$$

WVZ025-035-042-045-041900-
Southern West Virginia

CITY           SKY/WX    TMP DP  RH WIND       PRES   REMARKS
BECKLEY        CLOUDY    53  42  66 SW14G20   29.71F
LOGAN          NOT AVBL
BLUEFIELD      PTSUNNY   54  35  48 W12G18    29.72F
LEWISBURG      CLOUDY    57  41  55 S6        29.69F
$$

WVZ047-041900-
Northern Mountains of West Virginia

CITY           SKY/WX    TMP DP  RH WIND       PRES   REMARKS
ELKINS         CLOUDY    55  46  71 N6        29.69F
$$

WVZ052-041900-
Eastern Panhandle of West Virginia

CITY           SKY/WX    TMP DP  RH WIND       PRES   REMARKS
MARTINSBURG    CLOUDY    61  53  75 E9        29.65F
PETERSBURG     CLOUDY    59  50  72 W3        29.68S
$$





000
ASUS41 KRLX 041810
RWRRLX
West Virginia Regional Weather Roundup
National Weather Service Charleston WV
200 PM EDT WED MAY 04 2016

Note: "fair" indicates few or no clouds below 12,000 feet with no
significant weather and/or obstructions to visibility.

WVZ003-041900-
Northern Panhandle of West Virginia

CITY           SKY/WX    TMP DP  RH WIND       PRES   REMARKS
WHEELING       PTSUNNY   60  42  51 W15       29.65F
$$

WVZ009-041900-
Northwest West Virginia

CITY           SKY/WX    TMP DP  RH WIND       PRES   REMARKS
PARKERSBURG    PTSUNNY   63  46  54 VRB3      29.67F
$$

WVZ006-041900-
Western West Virginia

CITY           SKY/WX    TMP DP  RH WIND       PRES   REMARKS
HUNTINGTON     LGT RAIN  61  45  55 S10       29.66F
$$

WVZ015-041900-
West Central West Virginia

CITY           SKY/WX    TMP DP  RH WIND       PRES   REMARKS
CHARLESTON     PTSUNNY   62  41  46 VRB5      29.67F
$$

WVZ022-031-041900-
North Central West Virginia

CITY           SKY/WX    TMP DP  RH WIND       PRES   REMARKS
CLARKSBURG     RAIN      50  47  89 SW3       29.68S FOG
MORGANTOWN     CLOUDY    59  43  55 N3        29.67F
$$

WVZ025-035-042-045-041900-
Southern West Virginia

CITY           SKY/WX    TMP DP  RH WIND       PRES   REMARKS
BECKLEY        CLOUDY    53  42  66 SW14G20   29.71F
LOGAN          NOT AVBL
BLUEFIELD      PTSUNNY   54  35  48 W12G18    29.72F
LEWISBURG      CLOUDY    57  41  55 S6        29.69F
$$

WVZ047-041900-
Northern Mountains of West Virginia

CITY           SKY/WX    TMP DP  RH WIND       PRES   REMARKS
ELKINS         CLOUDY    55  46  71 N6        29.69F
$$

WVZ052-041900-
Eastern Panhandle of West Virginia

CITY           SKY/WX    TMP DP  RH WIND       PRES   REMARKS
MARTINSBURG    CLOUDY    61  53  75 E9        29.65F
PETERSBURG     CLOUDY    59  50  72 W3        29.68S
$$





000
ASUS41 KRLX 041710
RWRRLX
West Virginia Regional Weather Roundup
National Weather Service Charleston WV
100 PM EDT WED MAY 04 2016

Note: "fair" indicates few or no clouds below 12,000 feet with no
significant weather and/or obstructions to visibility.

WVZ003-041800-
Northern Panhandle of West Virginia

CITY           SKY/WX    TMP DP  RH WIND       PRES   REMARKS
WHEELING       PTSUNNY   60  44  55 VRB7      29.66F
$$

WVZ009-041800-
Northwest West Virginia

CITY           SKY/WX    TMP DP  RH WIND       PRES   REMARKS
PARKERSBURG    PTSUNNY   61  46  57 SW7       29.69F
$$

WVZ006-041800-
Western West Virginia

CITY           SKY/WX    TMP DP  RH WIND       PRES   REMARKS
HUNTINGTON     LGT RAIN  61  45  55 SW7       29.69F
$$

WVZ015-041800-
West Central West Virginia

CITY           SKY/WX    TMP DP  RH WIND       PRES   REMARKS
CHARLESTON     PTSUNNY   61  43  51 SW7       29.70F
$$

WVZ022-031-041800-
North Central West Virginia

CITY           SKY/WX    TMP DP  RH WIND       PRES   REMARKS
CLARKSBURG     CLOUDY    57  50  77 SE8       29.68F
MORGANTOWN     CLOUDY    58  44  60 E3        29.69F
$$

WVZ025-035-042-045-041800-
Southern West Virginia

CITY           SKY/WX    TMP DP  RH WIND       PRES   REMARKS
BECKLEY        PTSUNNY   56  41  57 W7        29.73S
LOGAN          NOT AVBL
BLUEFIELD      PTSUNNY   53  40  61 W13G22    29.74F
LEWISBURG      CLOUDY    54  41  62 NW9G17    29.71F
$$

WVZ047-041800-
Northern Mountains of West Virginia

CITY           SKY/WX    TMP DP  RH WIND       PRES   REMARKS
ELKINS         CLOUDY    54  44  69 CALM      29.71F
$$

WVZ052-041800-
Eastern Panhandle of West Virginia

CITY           SKY/WX    TMP DP  RH WIND       PRES   REMARKS
MARTINSBURG    CLOUDY    60  53  77 E7        29.67F
PETERSBURG       N/A     61  51  68 CALM      29.68F
$$





000
ASUS41 KRLX 041710
RWRRLX
West Virginia Regional Weather Roundup
National Weather Service Charleston WV
100 PM EDT WED MAY 04 2016

Note: "fair" indicates few or no clouds below 12,000 feet with no
significant weather and/or obstructions to visibility.

WVZ003-041800-
Northern Panhandle of West Virginia

CITY           SKY/WX    TMP DP  RH WIND       PRES   REMARKS
WHEELING       PTSUNNY   60  44  55 VRB7      29.66F
$$

WVZ009-041800-
Northwest West Virginia

CITY           SKY/WX    TMP DP  RH WIND       PRES   REMARKS
PARKERSBURG    PTSUNNY   61  46  57 SW7       29.69F
$$

WVZ006-041800-
Western West Virginia

CITY           SKY/WX    TMP DP  RH WIND       PRES   REMARKS
HUNTINGTON     LGT RAIN  61  45  55 SW7       29.69F
$$

WVZ015-041800-
West Central West Virginia

CITY           SKY/WX    TMP DP  RH WIND       PRES   REMARKS
CHARLESTON     PTSUNNY   61  43  51 SW7       29.70F
$$

WVZ022-031-041800-
North Central West Virginia

CITY           SKY/WX    TMP DP  RH WIND       PRES   REMARKS
CLARKSBURG     CLOUDY    57  50  77 SE8       29.68F
MORGANTOWN     CLOUDY    58  44  60 E3        29.69F
$$

WVZ025-035-042-045-041800-
Southern West Virginia

CITY           SKY/WX    TMP DP  RH WIND       PRES   REMARKS
BECKLEY        PTSUNNY   56  41  57 W7        29.73S
LOGAN          NOT AVBL
BLUEFIELD      PTSUNNY   53  40  61 W13G22    29.74F
LEWISBURG      CLOUDY    54  41  62 NW9G17    29.71F
$$

WVZ047-041800-
Northern Mountains of West Virginia

CITY           SKY/WX    TMP DP  RH WIND       PRES   REMARKS
ELKINS         CLOUDY    54  44  69 CALM      29.71F
$$

WVZ052-041800-
Eastern Panhandle of West Virginia

CITY           SKY/WX    TMP DP  RH WIND       PRES   REMARKS
MARTINSBURG    CLOUDY    60  53  77 E7        29.67F
PETERSBURG       N/A     61  51  68 CALM      29.68F
$$





000
ASUS41 KRLX 041610
RWRRLX
West Virginia Regional Weather Roundup
National Weather Service Charleston WV
1200 PM EDT WED MAY 04 2016

Note: "fair" indicates few or no clouds below 12,000 feet with no
significant weather and/or obstructions to visibility.

WVZ003-041700-
Northern Panhandle of West Virginia

CITY           SKY/WX    TMP DP  RH WIND       PRES   REMARKS
WHEELING       PTSUNNY   58  45  62 CALM      29.68F
$$

WVZ009-041700-
Northwest West Virginia

CITY           SKY/WX    TMP DP  RH WIND       PRES   REMARKS
PARKERSBURG    PTSUNNY   60  48  64 VRB7      29.71F
$$

WVZ006-041700-
Western West Virginia

CITY           SKY/WX    TMP DP  RH WIND       PRES   REMARKS
HUNTINGTON     PTSUNNY   62  44  51 SW10      29.70F
$$

WVZ015-041700-
West Central West Virginia

CITY           SKY/WX    TMP DP  RH WIND       PRES   REMARKS
CHARLESTON     PTSUNNY   61  45  55 W9        29.72F
$$

WVZ022-031-041700-
North Central West Virginia

CITY           SKY/WX    TMP DP  RH WIND       PRES   REMARKS
CLARKSBURG     CLOUDY    56  48  74 E3        29.70F
MORGANTOWN       N/A     57  45  64 CALM      29.71F
$$

WVZ025-035-042-045-041700-
Southern West Virginia

CITY           SKY/WX    TMP DP  RH WIND       PRES   REMARKS
BECKLEY        CLOUDY    54  43  66 VRB6      29.74F
LOGAN          NOT AVBL
BLUEFIELD      CLOUDY    51  42  71 W14G21    29.76S
LEWISBURG        N/A     55  42  63 SW6       29.72S
$$

WVZ047-041700-
Northern Mountains of West Virginia

CITY           SKY/WX    TMP DP  RH WIND       PRES   REMARKS
ELKINS         LGT RAIN  52  45  77 VRB3      29.73S
$$

WVZ052-041700-
Eastern Panhandle of West Virginia

CITY           SKY/WX    TMP DP  RH WIND       PRES   REMARKS
MARTINSBURG    CLOUDY    58  53  84 SE7       29.70S
PETERSBURG     LGT RAIN  58  52  81 W7        29.71S
$$





000
ASUS41 KRLX 041510
RWRRLX
West Virginia Regional Weather Roundup
National Weather Service Charleston WV
1100 AM EDT WED MAY 04 2016

Note: "fair" indicates few or no clouds below 12,000 feet with no
significant weather and/or obstructions to visibility.

WVZ003-041600-
Northern Panhandle of West Virginia

CITY           SKY/WX    TMP DP  RH WIND       PRES   REMARKS
WHEELING       CLOUDY    55  47  74 CALM      29.70F
$$

WVZ009-041600-
Northwest West Virginia

CITY           SKY/WX    TMP DP  RH WIND       PRES   REMARKS
PARKERSBURG      N/A     58  50  75 VRB3      29.73F
$$

WVZ006-041600-
Western West Virginia

CITY           SKY/WX    TMP DP  RH WIND       PRES   REMARKS
HUNTINGTON     PTSUNNY   61  46  57 W6        29.72F
$$

WVZ015-041600-
West Central West Virginia

CITY           SKY/WX    TMP DP  RH WIND       PRES   REMARKS
CHARLESTON     PTSUNNY   57  49  74 SW9       29.73F
$$

WVZ022-031-041600-
North Central West Virginia

CITY           SKY/WX    TMP DP  RH WIND       PRES   REMARKS
CLARKSBURG     CLOUDY    55  49  80 CALM      29.71F
MORGANTOWN     CLOUDY    54  46  74 CALM      29.72S
$$

WVZ025-035-042-045-041600-
Southern West Virginia

CITY           SKY/WX    TMP DP  RH WIND       PRES   REMARKS
BECKLEY        LGT RAIN  49  43  80 W7        29.75S
LOGAN          NOT AVBL
BLUEFIELD      CLOUDY    49  42  77 W10       29.76F
LEWISBURG      CLOUDY    53  42  66 CALM      29.73F
$$

WVZ047-041600-
Northern Mountains of West Virginia

CITY           SKY/WX    TMP DP  RH WIND       PRES   REMARKS
ELKINS         LGT RAIN  49  43  80 NW6       29.73R
$$

WVZ052-041600-
Eastern Panhandle of West Virginia

CITY           SKY/WX    TMP DP  RH WIND       PRES   REMARKS
MARTINSBURG    CLOUDY    59  53  80 SE8       29.70S
PETERSBURG     CLOUDY    57  51  82 CALM      29.72S
$$





000
ASUS41 KRLX 041510
RWRRLX
West Virginia Regional Weather Roundup
National Weather Service Charleston WV
1100 AM EDT WED MAY 04 2016

Note: "fair" indicates few or no clouds below 12,000 feet with no
significant weather and/or obstructions to visibility.

WVZ003-041600-
Northern Panhandle of West Virginia

CITY           SKY/WX    TMP DP  RH WIND       PRES   REMARKS
WHEELING       CLOUDY    55  47  74 CALM      29.70F
$$

WVZ009-041600-
Northwest West Virginia

CITY           SKY/WX    TMP DP  RH WIND       PRES   REMARKS
PARKERSBURG      N/A     58  50  75 VRB3      29.73F
$$

WVZ006-041600-
Western West Virginia

CITY           SKY/WX    TMP DP  RH WIND       PRES   REMARKS
HUNTINGTON     PTSUNNY   61  46  57 W6        29.72F
$$

WVZ015-041600-
West Central West Virginia

CITY           SKY/WX    TMP DP  RH WIND       PRES   REMARKS
CHARLESTON     PTSUNNY   57  49  74 SW9       29.73F
$$

WVZ022-031-041600-
North Central West Virginia

CITY           SKY/WX    TMP DP  RH WIND       PRES   REMARKS
CLARKSBURG     CLOUDY    55  49  80 CALM      29.71F
MORGANTOWN     CLOUDY    54  46  74 CALM      29.72S
$$

WVZ025-035-042-045-041600-
Southern West Virginia

CITY           SKY/WX    TMP DP  RH WIND       PRES   REMARKS
BECKLEY        LGT RAIN  49  43  80 W7        29.75S
LOGAN          NOT AVBL
BLUEFIELD      CLOUDY    49  42  77 W10       29.76F
LEWISBURG      CLOUDY    53  42  66 CALM      29.73F
$$

WVZ047-041600-
Northern Mountains of West Virginia

CITY           SKY/WX    TMP DP  RH WIND       PRES   REMARKS
ELKINS         LGT RAIN  49  43  80 NW6       29.73R
$$

WVZ052-041600-
Eastern Panhandle of West Virginia

CITY           SKY/WX    TMP DP  RH WIND       PRES   REMARKS
MARTINSBURG    CLOUDY    59  53  80 SE8       29.70S
PETERSBURG     CLOUDY    57  51  82 CALM      29.72S
$$





000
ASUS41 KRLX 041410
RWRRLX
West Virginia Regional Weather Roundup
National Weather Service Charleston WV
1000 AM EDT WED MAY 04 2016

Note: "fair" indicates few or no clouds below 12,000 feet with no
significant weather and/or obstructions to visibility.

WVZ003-041500-
Northern Panhandle of West Virginia

CITY           SKY/WX    TMP DP  RH WIND       PRES   REMARKS
WHEELING       CLOUDY    53  48  83 CALM      29.71F
$$

WVZ009-041500-
Northwest West Virginia

CITY           SKY/WX    TMP DP  RH WIND       PRES   REMARKS
PARKERSBURG    PTSUNNY  N/A N/A N/A W3        29.75F
$$

WVZ006-041500-
Western West Virginia

CITY           SKY/WX    TMP DP  RH WIND       PRES   REMARKS
HUNTINGTON       N/A     59  49  69 SW6       29.74F
$$

WVZ015-041500-
West Central West Virginia

CITY           SKY/WX    TMP DP  RH WIND       PRES   REMARKS
CHARLESTON     LGT RAIN  54  50  86 SW5       29.74F
$$

WVZ022-031-041500-
North Central West Virginia

CITY           SKY/WX    TMP DP  RH WIND       PRES   REMARKS
CLARKSBURG     CLOUDY    53  49  86 W3        29.72R
MORGANTOWN     CLOUDY    52  47  83 NE3       29.72F FOG
$$

WVZ025-035-042-045-041500-
Southern West Virginia

CITY           SKY/WX    TMP DP  RH WIND       PRES   REMARKS
BECKLEY        CLOUDY    50  44  80 W8        29.75F
LOGAN          NOT AVBL
BLUEFIELD      RAIN      46  42  86 W16G22    29.77R FOG
LEWISBURG      CLOUDY    50  46  84 SW6       29.74F
$$

WVZ047-041500-
Northern Mountains of West Virginia

CITY           SKY/WX    TMP DP  RH WIND       PRES   REMARKS
ELKINS         CLOUDY    52  47  83 CALM      29.73S
$$

WVZ052-041500-
Eastern Panhandle of West Virginia

CITY           SKY/WX    TMP DP  RH WIND       PRES   REMARKS
MARTINSBURG    PTSUNNY   60  51  72 VRB3      29.70F
PETERSBURG     CLOUDY    55  51  85 CALM      29.72S
$$





000
ASUS41 KRLX 041310
RWRRLX
West Virginia Regional Weather Roundup
National Weather Service Charleston WV
900 AM EDT WED MAY 04 2016

Note: "fair" indicates few or no clouds below 12,000 feet with no
significant weather and/or obstructions to visibility.

WVZ003-041400-
Northern Panhandle of West Virginia

CITY           SKY/WX    TMP DP  RH WIND       PRES   REMARKS
WHEELING       CLOUDY    52  48  86 CALM      29.72S
$$

WVZ009-041400-
Northwest West Virginia

CITY           SKY/WX    TMP DP  RH WIND       PRES   REMARKS
PARKERSBURG    PTSUNNY  N/A N/A N/A W3        29.76S
$$

WVZ006-041400-
Western West Virginia

CITY           SKY/WX    TMP DP  RH WIND       PRES   REMARKS
HUNTINGTON       N/A     56  50  80 SW5       29.75F
$$

WVZ015-041400-
West Central West Virginia

CITY           SKY/WX    TMP DP  RH WIND       PRES   REMARKS
CHARLESTON     CLOUDY    53  50  89 W6        29.75S
$$

WVZ022-031-041400-
North Central West Virginia

CITY           SKY/WX    TMP DP  RH WIND       PRES   REMARKS
CLARKSBURG     CLOUDY    53  51  93 CALM      29.72S
MORGANTOWN     LGT RAIN  50  46  86 NW3       29.73S FOG
$$

WVZ025-035-042-045-041400-
Southern West Virginia

CITY           SKY/WX    TMP DP  RH WIND       PRES   REMARKS
BECKLEY        CLOUDY    49  45  86 SW7       29.76S
LOGAN          NOT AVBL
BLUEFIELD      CLOUDY    47  43  86 NW8       29.77F
LEWISBURG      CLOUDY    49  46  89 SW5       29.75S
$$

WVZ047-041400-
Northern Mountains of West Virginia

CITY           SKY/WX    TMP DP  RH WIND       PRES   REMARKS
ELKINS         CLOUDY    50  47  89 CALM      29.73F
$$

WVZ052-041400-
Eastern Panhandle of West Virginia

CITY           SKY/WX    TMP DP  RH WIND       PRES   REMARKS
MARTINSBURG      N/A     56  54  93 E3        29.71S
PETERSBURG     CLOUDY    53  50  91 CALM      29.73S
$$





000
ASUS41 KRLX 041210
RWRRLX
West Virginia Regional Weather Roundup
National Weather Service Charleston WV
800 AM EDT WED MAY 04 2016

Note: "fair" indicates few or no clouds below 12,000 feet with no
significant weather and/or obstructions to visibility.

WVZ003-041300-
Northern Panhandle of West Virginia

CITY           SKY/WX    TMP DP  RH WIND       PRES   REMARKS
WHEELING       CLOUDY    50  46  86 S3        29.72R
$$

WVZ009-041300-
Northwest West Virginia

CITY           SKY/WX    TMP DP  RH WIND       PRES   REMARKS
PARKERSBURG    PTSUNNY  N/A N/A N/A CALM      29.76S
$$

WVZ006-041300-
Western West Virginia

CITY           SKY/WX    TMP DP  RH WIND       PRES   REMARKS
HUNTINGTON     CLOUDY    52  49  89 W6        29.76S
$$

WVZ015-041300-
West Central West Virginia

CITY           SKY/WX    TMP DP  RH WIND       PRES   REMARKS
CHARLESTON     CLOUDY    53  50  89 W6        29.75S FOG
$$

WVZ022-031-041300-
North Central West Virginia

CITY           SKY/WX    TMP DP  RH WIND       PRES   REMARKS
CLARKSBURG     CLOUDY    52  51  97 S6        29.72S
MORGANTOWN     CLOUDY    52  48  86 CALM      29.73S
$$

WVZ025-035-042-045-041300-
Southern West Virginia

CITY           SKY/WX    TMP DP  RH WIND       PRES   REMARKS
BECKLEY        CLOUDY    48  46  93 SW7       29.76S
LOGAN          NOT AVBL
BLUEFIELD      CLOUDY    46  44  93 W6        29.78R
LEWISBURG      CLOUDY    46  45  97 CALM      29.75S FOG
$$

WVZ047-041300-
Northern Mountains of West Virginia

CITY           SKY/WX    TMP DP  RH WIND       PRES   REMARKS
ELKINS         CLOUDY    50  46  86 CALM      29.74S
$$

WVZ052-041300-
Eastern Panhandle of West Virginia

CITY           SKY/WX    TMP DP  RH WIND       PRES   REMARKS
MARTINSBURG    PTSUNNY   54  54 100 CALM      29.72S FOG
PETERSBURG     CLOUDY    51  50  96 CALM      29.74S
$$





000
ASUS41 KRLX 041210
RWRRLX
West Virginia Regional Weather Roundup
National Weather Service Charleston WV
800 AM EDT WED MAY 04 2016

Note: "fair" indicates few or no clouds below 12,000 feet with no
significant weather and/or obstructions to visibility.

WVZ003-041300-
Northern Panhandle of West Virginia

CITY           SKY/WX    TMP DP  RH WIND       PRES   REMARKS
WHEELING       CLOUDY    50  46  86 S3        29.72R
$$

WVZ009-041300-
Northwest West Virginia

CITY           SKY/WX    TMP DP  RH WIND       PRES   REMARKS
PARKERSBURG    PTSUNNY  N/A N/A N/A CALM      29.76S
$$

WVZ006-041300-
Western West Virginia

CITY           SKY/WX    TMP DP  RH WIND       PRES   REMARKS
HUNTINGTON     CLOUDY    52  49  89 W6        29.76S
$$

WVZ015-041300-
West Central West Virginia

CITY           SKY/WX    TMP DP  RH WIND       PRES   REMARKS
CHARLESTON     CLOUDY    53  50  89 W6        29.75S FOG
$$

WVZ022-031-041300-
North Central West Virginia

CITY           SKY/WX    TMP DP  RH WIND       PRES   REMARKS
CLARKSBURG     CLOUDY    52  51  97 S6        29.72S
MORGANTOWN     CLOUDY    52  48  86 CALM      29.73S
$$

WVZ025-035-042-045-041300-
Southern West Virginia

CITY           SKY/WX    TMP DP  RH WIND       PRES   REMARKS
BECKLEY        CLOUDY    48  46  93 SW7       29.76S
LOGAN          NOT AVBL
BLUEFIELD      CLOUDY    46  44  93 W6        29.78R
LEWISBURG      CLOUDY    46  45  97 CALM      29.75S FOG
$$

WVZ047-041300-
Northern Mountains of West Virginia

CITY           SKY/WX    TMP DP  RH WIND       PRES   REMARKS
ELKINS         CLOUDY    50  46  86 CALM      29.74S
$$

WVZ052-041300-
Eastern Panhandle of West Virginia

CITY           SKY/WX    TMP DP  RH WIND       PRES   REMARKS
MARTINSBURG    PTSUNNY   54  54 100 CALM      29.72S FOG
PETERSBURG     CLOUDY    51  50  96 CALM      29.74S
$$





000
ASUS41 KRLX 041110
RWRRLX
West Virginia Regional Weather Roundup
National Weather Service Charleston WV
700 AM EDT WED MAY 04 2016

Note: "fair" indicates few or no clouds below 12,000 feet with no
significant weather and/or obstructions to visibility.

WVZ003-041200-
Northern Panhandle of West Virginia

CITY           SKY/WX    TMP DP  RH WIND       PRES   REMARKS
WHEELING       CLOUDY    49  45  86 SE5       29.71F
$$

WVZ009-041200-
Northwest West Virginia

CITY           SKY/WX    TMP DP  RH WIND       PRES   REMARKS
PARKERSBURG    MOCLDY   N/A N/A N/A CALM      29.76
$$

WVZ006-041200-
Western West Virginia

CITY           SKY/WX    TMP DP  RH WIND       PRES   REMARKS
HUNTINGTON     CLOUDY    52  50  93 SW6       29.76S
$$

WVZ015-041200-
West Central West Virginia

CITY           SKY/WX    TMP DP  RH WIND       PRES   REMARKS
CHARLESTON     RAIN      53  50  89 SW7       29.75S FOG
$$

WVZ022-031-041200-
North Central West Virginia

CITY           SKY/WX    TMP DP  RH WIND       PRES   REMARKS
CLARKSBURG     CLOUDY    51  50  96 S3        29.72F
MORGANTOWN     CLOUDY    52  48  86 CALM      29.73F FOG
$$

WVZ025-035-042-045-041200-
Southern West Virginia

CITY           SKY/WX    TMP DP  RH WIND       PRES   REMARKS
BECKLEY        CLOUDY    48  46  93 SW5       29.76S
LOGAN          NOT AVBL
BLUEFIELD      CLOUDY    46  43  89 W5        29.77S
LEWISBURG        N/A     44  44  99 CALM      29.75S FOG
$$

WVZ047-041200-
Northern Mountains of West Virginia

CITY           SKY/WX    TMP DP  RH WIND       PRES   REMARKS
ELKINS         CLOUDY    49  46  90 CALM      29.74F
$$

WVZ052-041200-
Eastern Panhandle of West Virginia

CITY           SKY/WX    TMP DP  RH WIND       PRES   REMARKS
MARTINSBURG    FOG       53  53 100 CALM      29.72R VSB<1/4
PETERSBURG     CLOUDY    49  49  99 CALM      29.74F
$$





000
ASUS41 KRLX 041010
RWRRLX
West Virginia Regional Weather Roundup
National Weather Service Charleston WV
600 AM EDT WED MAY 04 2016

Note: "fair" indicates few or no clouds below 12,000 feet with no
significant weather and/or obstructions to visibility.

WVZ003-041100-
Northern Panhandle of West Virginia

CITY           SKY/WX    TMP DP  RH WIND       PRES   REMARKS
WHEELING       CLOUDY    49  46  90 CALM      29.72F FOG
$$

WVZ009-041100-
Northwest West Virginia

CITY           SKY/WX    TMP DP  RH WIND       PRES   REMARKS
PARKERSBURG      N/A    N/A N/A N/A MISG        N/A
$$

WVZ006-041100-
Western West Virginia

CITY           SKY/WX    TMP DP  RH WIND       PRES   REMARKS
HUNTINGTON     CLOUDY    52  50  93 SW3       29.76F
$$

WVZ015-041100-
West Central West Virginia

CITY           SKY/WX    TMP DP  RH WIND       PRES   REMARKS
CHARLESTON     CLOUDY    53  50  89 W7        29.75F
$$

WVZ022-031-041100-
North Central West Virginia

CITY           SKY/WX    TMP DP  RH WIND       PRES   REMARKS
CLARKSBURG     CLOUDY    51  49  92 CALM      29.72F
MORGANTOWN     CLOUDY    52  47  83 SW3       29.74S
$$

WVZ025-035-042-045-041100-
Southern West Virginia

CITY           SKY/WX    TMP DP  RH WIND       PRES   REMARKS
BECKLEY        CLOUDY    48  46  93 SW3       29.76F
LOGAN          NOT AVBL
BLUEFIELD      CLOUDY    46  44  93 W5        29.77F
LEWISBURG      MOCLDY    46  44  91 CALM      29.75S
$$

WVZ047-041100-
Northern Mountains of West Virginia

CITY           SKY/WX    TMP DP  RH WIND       PRES   REMARKS
ELKINS         CLOUDY    48  45  89 NW3       29.75F
$$

WVZ052-041100-
Eastern Panhandle of West Virginia

CITY           SKY/WX    TMP DP  RH WIND       PRES   REMARKS
MARTINSBURG    FOG       54  54 100 CALM      29.71F VSB 1/4
PETERSBURG     FOG       50  49  99 CALM      29.74F VSB 3/4
$$





    US Dept of Commerce
    National Oceanic and Atmospheric Administration
    National Weather Service
    1325 East West Highway
    Silver Spring, MD 20910
    Page Author: NWS Internet Services Team
Disclaimer
Information Quality
Credits
Glossary
Privacy Policy
Freedom of Information Act (FOIA)
About Us
Career Opportunities